FW0782 Weather Reports


time (UTC)temp
C
wind
direction
speed
KPH
gust
KPH
rain 1hr
cm
rain 24hr
cm
rain mn
cm
humidity
%
barometer
mb
20260506185022 12 56 4.8 8.0 0.00 0.00 0.00 65 1011.3
20260506184721 12 55 4.8 8.0 0.00 0.00 0.00 65 1011.6
20260506184221 12 55 3.2 9.7 0.00 0.00 0.00 65 1011.5
20260506184022 12 55 3.2 9.7 0.00 0.00 0.00 65 1011.2
20260506183721 12 55 4.8 9.7 0.00 0.00 0.00 66 1011.5
20260506183221 12 55 8.0 14.5 0.00 0.00 0.00 67 1011.5
20260506183021 12 56 9.7 14.5 0.00 0.00 0.00 68 1011.2
20260506181724 13 15 6.4 11.3 0.00 0.00 0.00 72 1011.2
20260506181220 13 53 8.0 12.9 0.00 0.00 0.00 71 1011.1
20260506180721 13 54 8.0 16.1 0.00 0.00 0.00 71 1011.0
20260506180221 13 53 9.7 12.9 0.00 0.00 0.00 70 1010.9
20260506180021 13 32 8.0 12.9 0.00 0.00 0.00 70 1010.5
20260506175721 13 349 9.7 19.3 0.00 0.00 0.00 69 1010.8
20260506175221 13 44 8.0 14.5 0.00 0.00 0.00 69 1010.8
20260506175021 13 16 8.0 14.5 0.00 0.00 0.00 70 1010.5
20260506174721 13 10 9.7 20.9 0.00 0.00 0.00 70 1010.8
20260506174021 13 26 6.4 12.9 0.00 0.00 0.00 69 1010.4
20260506173721 13 55 9.7 16.1 0.00 0.00 0.00 69 1010.7
20260506173221 13 20 8.0 14.5 0.00 0.00 0.00 68 1010.6
20260506173021 13 54 8.0 14.5 0.00 0.00 0.00 69 1010.3
20260506172221 13 2 8.0 19.3 0.00 0.00 0.00 70 1010.6
20260506172021 13 5 8.0 16.1 0.00 0.00 0.00 70 1010.3
20260506171720 13 21 4.8 22.5 0.00 0.00 0.00 70 1010.5
20260506171221 13 1 9.7 20.9 0.00 0.00 0.00 70 1010.5
20260506171021 13 1 9.7 20.9 0.00 0.00 0.00 70 1010.2
20260506170721 13 11 9.7 19.3 0.00 0.00 0.00 70 1010.4
20260506165720 13 8 8.0 19.3 0.00 0.00 0.00 69 1010.5
20260506165021 13 354 11.3 19.3 0.00 0.00 0.00 69 1010.1
20260506164720 13 37 4.8 11.3 0.00 0.00 0.00 68 1010.3
20260506164221 13 347 8.0 16.1 0.00 0.00 0.00 68 1010.3
20260506164020 13 39 6.4 12.9 0.00 0.00 0.00 68 1010.0
20260506163721 13 28 11.3 29.0 0.00 0.00 0.00 69 1010.3
20260506163021 14 14 8.0 24.1 0.00 0.00 0.00 69 1009.9
20260506162220 14 1 9.7 24.1 0.00 0.00 0.00 70 1010.2
20260506161721 14 351 16.1 33.8 0.00 0.00 0.00 70 1010.2
20260506161221 13 355 11.3 24.1 0.00 0.00 0.00 70 1010.3
20260506161020 13 351 14.5 24.1 0.00 0.00 0.00 70 1009.9
20260506160721 13 356 11.3 20.9 0.00 0.00 0.00 71 1010.3
20260506160221 13 351 11.3 24.1 0.00 0.00 0.00 69 1010.3
20260506160022 14 351 12.9 24.1 0.00 0.00 0.00 69 1009.9
20260506155720 14 5 9.7 19.3 0.00 0.00 0.00 70 1010.3
20260506155221 14 355 9.7 19.3 0.00 0.00 0.00 71 1010.3
20260506155021 14 346 11.3 19.3 0.00 0.00 0.00 72 1009.9
20260506154720 15 12 11.3 24.1 0.00 0.00 0.00 71 1010.3
20260506154221 14 7 11.3 22.5 0.00 0.00 0.00 70 1010.3
20260506154022 14 11 8.0 12.9 0.00 0.00 0.00 70 1010.0
20260506153721 15 2 11.3 24.1 0.00 0.00 0.00 70 1010.3
20260506153221 15 3 9.7 19.3 0.00 0.00 0.00 70 1010.3
20260506153021 15 357 9.7 16.1 0.00 0.00 0.00 70 1009.9
20260506152721 15 351 14.5 32.2 0.00 0.00 0.00 70 1010.3
20260506152221 15 349 11.3 25.7 0.00 0.00 0.00 72 1010.3
20260506152021 15 347 14.5 25.7 0.00 0.00 0.00 71 1010.0
20260506151720 15 343 11.3 22.5 0.00 0.00 0.00 72 1010.2
20260506151221 15 352 12.9 22.5 0.00 0.00 0.00 71 1010.3
20260506151021 15 342 14.5 24.1 0.00 0.00 0.00 71 1010.0
20260506150720 15 342 12.9 22.5 0.00 0.00 0.00 72 1010.2
20260506150220 15 341 9.7 24.1 0.00 0.00 0.00 70 1010.2
20260506150020 15 341 11.3 19.3 0.00 0.00 0.00 70 1009.9
20260506145720 15 339 9.7 20.9 0.00 0.00 0.00 71 1010.2
20260506145221 15 358 11.3 22.5 0.00 0.00 0.00 68 1010.3
20260506144721 15 54 8.0 19.3 0.00 0.00 0.00 69 1010.2
20260506144220 15 9 9.7 22.5 0.00 0.00 0.00 68 1010.2
20260506144021 15 354 14.5 22.5 0.00 0.00 0.00 69 1010.0
20260506143720 15 30 9.7 24.1 0.00 0.00 0.00 68 1010.2
20260506143220 15 27 12.9 22.5 0.00 0.00 0.00 71 1010.2
20260506142721 15 355 8.0 19.3 0.00 0.00 0.00 69 1010.1
20260506142220 15 344 12.9 24.1 0.00 0.00 0.00 72 1010.1
20260506141720 15 27 9.7 22.5 0.00 0.00 0.00 70 1010.1
20260506141220 15 2 11.3 24.1 0.00 0.00 0.00 70 1010.2
20260506141021 15 7 12.9 20.9 0.00 0.00 0.00 69 1009.8
20260506140220 15 357 12.9 25.7 0.00 0.00 0.00 71 1010.3
20260506135221 15 337 11.3 20.9 0.00 0.00 0.00 71 1010.2
20260506135021 15 15 11.3 19.3 0.00 0.00 0.00 70 1009.9
20260506134720 15 354 11.3 22.5 0.00 0.00 0.00 73 1010.2
20260506134220 15 353 9.7 22.5 0.00 0.00 0.00 72 1010.2
20260506134020 15 1 9.7 19.3 0.00 0.00 0.00 70 1009.9
20260506133720 15 345 12.9 19.3 0.00 0.00 0.00 72 1010.3
20260506133220 14 357 9.7 19.3 0.00 0.00 0.00 71 1010.3
20260506133020 15 356 6.4 11.3 0.00 0.00 0.00 73 1010.0
20260506132720 15 352 9.7 19.3 0.00 0.00 0.00 73 1010.3
20260506132221 15 338 14.5 22.5 0.00 0.00 0.00 70 1010.3
20260506132020 15 346 14.5 22.5 0.00 0.00 0.00 73 1009.9
20260506131721 15 8 9.7 16.1 0.00 0.00 0.00 72 1010.3
20260506131221 15 45 8.0 20.9 0.00 0.00 0.00 71 1010.2
20260506131020 15 341 9.7 20.9 0.00 0.00 0.00 72 1009.9
20260506130721 15 354 12.9 22.5 0.00 0.00 0.00 74 1010.2
20260506130220 14 327 14.5 29.0 0.00 0.00 0.00 73 1010.1
20260506130020 14 1 14.5 29.0 0.00 0.00 0.00 73 1009.9
20260506125720 14 353 14.5 25.7 0.00 0.00 0.00 74 1010.2
20260506125220 14 355 9.7 20.9 0.00 0.00 0.00 73 1010.1
20260506125020 14 7 9.7 24.1 0.00 0.00 0.00 74 1009.8
20260506124720 14 358 11.3 24.1 0.00 0.00 0.00 72 1010.0
20260506124220 14 326 11.3 24.1 0.00 0.00 0.00 76 1010.0
20260506124020 14 1 9.7 14.5 0.00 0.00 0.00 74 1009.8
20260506123720 14 3 11.3 20.9 0.00 0.00 0.00 74 1010.0
20260506123220 14 357 11.3 24.1 0.00 0.00 0.00 74 1010.1
20260506123020 14 349 12.9 24.1 0.00 0.00 0.00 74 1009.8
20260506122720 14 6 9.7 20.9 0.00 0.00 0.00 75 1010.1
20260506122220 14 9 14.5 24.1 0.00 0.00 0.00 75 1010.1
20260506122020 14 345 12.9 24.1 0.00 0.00 0.00 75 1009.8
20260506121720 14 342 12.9 22.5 0.00 0.00 0.00 76 1010.1
20260506121220 14 348 9.7 19.3 0.00 0.00 0.00 76 1010.1
20260506121021 13 348 12.9 19.3 0.00 0.00 0.00 75 1009.7
20260506120220 13 15 8.0 20.9 0.00 0.00 0.00 75 1010.0
20260506120021 13 356 11.3 19.3 0.00 0.00 0.00 76 1009.7
20260506115720 13 357 14.5 22.5 0.00 0.00 0.00 76 1010.0
20260506115220 13 336 14.5 24.1 0.00 0.00 0.00 75 1010.0
20260506115021 13 344 12.9 24.1 0.00 0.00 0.00 75 1009.7
20260506114720 13 4 12.9 19.3 0.00 0.00 0.00 75 1009.9
20260506114219 14 355 14.5 24.1 0.00 0.00 0.00 75 1009.9
20260506113720 14 351 9.7 22.5 0.00 0.00 0.00 73 1009.9
20260506112720 14 334 14.5 25.7 0.00 0.00 0.00 73 1009.9
20260506112020 15 346 14.5 29.0 0.00 0.00 0.00 75 1009.6
20260506111720 14 8 11.3 19.3 0.00 0.00 0.00 75 1009.9
20260506111220 14 355 8.0 24.1 0.00 0.00 0.00 76 1009.8
20260506111021 13 351 11.3 19.3 0.00 0.00 0.00 76 1009.5
20260506110220 13 10 14.5 25.7 0.00 0.00 0.00 76 1009.9
20260506105720 13 349 11.3 20.9 0.00 0.00 0.00 77 1010.0
20260506105220 13 359 11.3 22.5 0.00 0.00 0.00 77 1010.0
20260506105021 13 350 16.1 25.7 0.00 0.00 0.00 77 1009.7
20260506104020 13 16 9.7 19.3 0.00 0.00 0.00 76 1009.7
20260506103220 13 348 11.3 25.7 0.00 0.00 0.00 76 1009.9
20260506103020 13 357 9.7 22.5 0.00 0.00 0.00 77 1009.6
20260506101720 13 332 14.5 22.5 0.00 0.00 0.00 77 1009.9
20260506101020 13 355 11.3 17.7 0.00 0.00 0.00 78 1009.6
20260506100719 13 338 8.0 19.3 0.00 0.00 0.00 77 1009.8
20260506100219 13 349 9.7 22.5 0.00 0.00 0.00 78 1009.8
20260506100020 12 351 11.3 22.5 0.00 0.00 0.00 77 1009.5
20260506095720 13 356 14.5 25.7 0.00 0.00 0.00 78 1009.8
20260506095020 13 5 12.9 24.1 0.00 0.00 0.00 78 1009.5
20260506094220 12 359 12.9 20.9 0.00 0.00 0.00 78 1009.7
20260506094020 12 348 11.3 22.5 0.00 0.00 0.00 78 1009.5
20260506093720 12 351 11.3 20.9 0.00 0.00 0.00 78 1009.8
20260506093220 13 354 9.7 19.3 0.00 0.00 0.00 78 1009.8
20260506093020 13 14 9.7 14.5 0.00 0.00 0.00 78 1009.5
20260506092720 12 35 11.3 24.1 0.00 0.00 0.00 79 1009.8
20260506092220 12 353 9.7 19.3 0.00 0.00 0.00 79 1009.8
20260506092020 12 15 9.7 14.5 0.00 0.00 0.00 78 1009.5
20260506091720 12 35 8.0 20.9 0.00 0.00 0.00 79 1009.8
20260506091220 12 351 9.7 20.9 0.00 0.00 0.00 80 1009.7
20260506091020 12 1 9.7 20.9 0.00 0.00 0.00 80 1009.5
20260506090720 12 13 6.4 14.5 0.00 0.00 0.00 79 1009.8
20260506090219 12 6 11.3 19.3 0.00 0.00 0.00 80 1009.7
20260506090020 11 353 12.9 17.7 0.00 0.00 0.00 80 1009.4
20260506085720 11 8 11.3 19.3 0.00 0.00 0.00 80 1009.7
20260506085219 11 1 11.3 19.3 0.00 0.00 0.00 80 1009.6
20260506084720 11 13 8.0 14.5 0.00 0.00 0.00 80 1009.6
20260506084220 11 3 4.8 19.3 0.00 0.00 0.00 81 1009.6
20260506084019 11 5 6.4 11.3 0.00 0.00 0.00 81 1009.3
20260506083720 11 344 9.7 20.9 0.00 0.00 0.00 81 1009.6
20260506083220 11 20 6.4 14.5 0.00 0.00 0.00 81 1009.5
20260506083020 11 48 8.0 14.5 0.00 0.00 0.00 82 1009.2
20260506082720 11 18 4.8 14.5 0.00 0.00 0.00 82 1009.5
20260506082220 11 346 9.7 19.3 0.00 0.00 0.00 82 1009.4
20260506082020 11 17 9.7 17.7 0.00 0.00 0.00 83 1009.1
20260506081719 11 6 8.0 25.7 0.00 0.00 0.00 83 1009.4
20260506081220 11 357 9.7 19.3 0.00 0.00 0.00 83 1009.4
20260506081020 11 4 11.3 19.3 0.00 0.00 0.00 83 1009.1
20260506080720 11 8 8.0 14.5 0.00 0.00 0.00 83 1009.5
20260506080219 11 0 9.7 19.3 0.00 0.00 0.00 84 1009.4
20260506073219 10 37 8.0 16.1 0.00 0.00 0.00 86 1009.4
20260506073020 10 6 8.0 19.3 0.00 0.00 0.00 86 1009.0
20260506072719 10 44 4.8 12.9 0.00 0.00 0.00 86 1009.3
20260506072219 10 18 8.0 20.9 0.00 0.00 0.00 86 1009.3
20260506071719 10 30 4.8 14.5 0.00 0.00 0.00 86 1009.3
20260506071020 10 48 4.8 11.3 0.00 0.00 0.00 86 1009.0
20260506070719 10 53 8.0 16.1 0.00 0.00 0.00 86 1009.3
20260506070220 10 59 8.0 12.9 0.00 0.00 0.00 86 1009.3
20260506062019 10 53 6.4 11.3 0.00 0.00 0.00 84 1008.8
20260506061719 10 51 9.7 14.5 0.00 0.00 0.00 84 1009.1
20260506061019 10 44 8.0 12.9 0.00 0.00 0.00 83 1008.8
20260506060719 10 43 9.7 19.3 0.00 0.00 0.00 83 1009.1
20260506051220 10 24 8.0 22.5 0.00 0.00 0.00 81 1008.9
20260506051019 10 6 9.7 22.5 0.00 0.00 0.00 81 1008.6
20260506050719 10 0 4.8 16.1 0.00 0.00 0.00 81 1009.0
20260506045019 10 355 4.8 9.7 0.00 0.00 0.00 81 1008.7
20260506044719 10 355 4.8 12.9 0.00 0.00 0.00 80 1009.0
20260506044219 10 355 9.7 19.3 0.00 0.00 0.00 80 1009.0
20260506044019 10 348 6.4 17.7 0.00 0.00 0.00 80 1008.7
20260506043719 10 351 9.7 19.3 0.00 0.00 0.00 80 1009.1
20260506043219 10 3 8.0 16.1 0.00 0.00 0.00 79 1009.0
20260506043019 10 347 8.0 17.7 0.00 0.00 0.00 79 1008.7
20260506042719 10 355 4.8 16.1 0.00 0.00 0.00 79 1009.0
20260506042219 10 1 8.0 16.1 0.00 0.00 0.00 79 1009.0
20260506042019 10 25 6.4 12.9 0.00 0.00 0.00 79 1008.7
20260506041719 10 27 8.0 16.1 0.00 0.00 0.00 79 1009.0
20260506041219 10 5 8.0 19.3 0.00 0.00 0.00 79 1009.0
20260506040719 10 354 4.8 16.1 0.00 0.00 0.00 79 1009.0
20260506040219 10 344 4.8 19.3 0.00 0.00 0.00 79 1009.1
20260506040019 10 346 6.4 19.3 0.00 0.00 0.00 79 1008.8
20260506035718 10 19 8.0 16.1 0.00 0.00 0.00 79 1009.2
20260506035219 10 3 8.0 22.5 0.00 0.00 0.00 78 1009.1
20260506035020 10 8 8.0 17.7 0.00 0.00 0.00 78 1008.8
20260506034719 10 358 9.7 22.5 0.00 0.00 0.00 78 1009.1
20260506034219 10 1 6.4 11.3 0.00 0.00 0.00 77 1009.2
20260506034019 10 348 6.4 9.7 0.00 0.00 0.00 77 1008.9
20260506033719 10 331 6.4 16.1 0.00 0.00 0.00 77 1009.2
20260506033219 10 41 3.2 11.3 0.00 0.00 0.00 77 1009.2
20260506033020 10 40 6.4 11.3 0.00 0.00 0.00 77 1008.9
20260506032719 10 36 6.4 9.7 0.00 0.00 0.00 77 1009.2
20260506032219 10 38 4.8 19.3 0.00 0.00 0.00 77 1009.2
20260506032019 10 43 8.0 17.7 0.00 0.00 0.00 77 1008.9
20260506031719 10 51 9.7 12.9 0.00 0.00 0.00 77 1009.2
20260506031219 10 21 4.8 12.9 0.00 0.00 0.00 78 1009.2
20260506030718 10 355 3.2 16.1 0.00 0.00 0.00 78 1009.3
20260506030019 10 5 6.4 12.9 0.00 0.00 0.00 78 1009.0
20260506025719 10 6 6.4 16.1 0.00 0.00 0.00 78 1009.4
20260506025219 10 49 4.8 11.3 0.00 0.00 0.00 78 1009.5
20260506024719 10 18 4.8 12.9 0.00 0.00 0.00 78 1009.5
20260506024219 10 42 3.2 9.7 0.00 0.00 0.00 78 1009.5
20260506024019 10 41 4.8 11.3 0.00 0.00 0.00 78 1009.2
20260506023219 10 37 6.4 14.5 0.00 0.00 0.00 79 1009.5
20260506022718 10 40 8.0 14.5 0.00 0.00 0.00 79 1009.6
20260506022219 9 43 8.0 12.9 0.00 0.00 0.00 79 1009.6
20260506022018 9 51 6.4 12.9 0.00 0.00 0.00 79 1009.3
20260506021719 9 51 6.4 12.9 0.00 0.00 0.00 79 1009.6
20260506021219 9 49 4.8 11.3 0.00 0.00 0.00 79 1009.6
20260506021020 9 27 6.4 11.3 0.00 0.00 0.00 79 1009.2
20260506020722 9 37 4.8 9.7 0.00 0.00 0.00 79 1009.6
20260506020018 9 32 4.8 9.7 0.00 0.00 0.00 79 1009.4
20260506015719 9 32 6.4 11.3 0.00 0.00 0.00 79 1009.7
20260506015219 9 37 4.8 12.9 0.00 0.00 0.00 79 1009.7
20260506015019 9 35 8.0 12.9 0.00 0.00 0.00 79 1009.4
20260506014718 9 49 8.0 14.5 0.00 0.00 0.00 79 1009.7
20260506014219 9 41 4.8 9.7 0.00 0.00 0.00 79 1009.7
20260506014019 9 43 4.8 9.7 0.00 0.00 0.00 79 1009.5
20260506013719 9 44 6.4 12.9 0.00 0.00 0.00 79 1009.8
20260506013219 9 53 8.0 19.3 0.00 0.00 0.00 79 1009.7
20260506013019 9 50 6.4 11.3 0.00 0.00 0.00 79 1009.5
20260506012718 9 47 6.4 9.7 0.00 0.00 0.00 79 1009.7
20260506012219 9 47 8.0 11.3 0.00 0.00 0.00 79 1009.8
20260506012019 9 47 6.4 11.3 0.00 0.00 0.00 79 1009.5
20260506011719 8 43 8.0 12.9 0.00 0.00 0.00 79 1009.7
20260506011218 8 54 8.0 19.3 0.00 0.00 0.00 79 1009.7
20260506011019 8 61 6.4 12.9 0.00 0.00 0.00 79 1009.5
20260506010718 8 60 8.0 12.9 0.00 0.00 0.00 79 1009.8
20260506010218 8 53 8.0 14.5 0.00 0.00 0.00 79 1009.8
20260506010018 9 53 8.0 14.5 0.00 0.00 0.00 79 1009.5
20260506005719 8 51 8.0 14.5 0.00 0.00 0.00 79 1009.8
20260506005218 9 59 9.7 14.5 0.00 0.00 0.00 79 1009.9
20260506005019 9 58 9.7 16.1 0.00 0.00 0.00 78 1009.6
20260506004718 9 53 8.0 14.5 0.00 0.00 0.00 79 1009.9
20260506004218 9 53 8.0 16.1 0.00 0.00 0.00 79 1009.9
20260506003719 9 55 8.0 14.5 0.00 0.00 0.00 79 1009.9
20260506003218 9 45 8.0 16.1 0.00 0.00 0.00 79 1010.0
20260506003019 9 44 8.0 16.1 0.00 0.00 0.00 79 1009.7
20260506002719 9 58 6.4 16.1 0.00 0.00 0.00 79 1010.1
20260506002219 9 51 6.4 14.5 0.00 0.00 0.00 79 1010.1
20260506002019 9 51 9.7 14.5 0.00 0.00 0.00 78 1009.8
20260506001719 9 54 8.0 14.5 0.00 0.00 0.00 78 1010.1
20260506001218 9 53 9.7 14.5 0.00 0.00 0.00 78 1010.2
20260506001019 9 49 9.7 14.5 0.00 0.00 0.00 78 1009.9
20260506000719 9 60 6.4 16.1 0.00 0.00 0.00 78 1010.2
20260506000019 9 57 8.0 11.3 0.00 0.00 0.00 78 1009.9
20260505235718 9 57 4.8 9.7 0.00 0.00 0.00 78 1010.2
20260505235219 9 60 8.0 11.3 0.00 0.00 0.00 78 1010.2
20260505235019 9 61 6.4 9.7 0.00 0.00 0.00 78 1009.9
20260505234718 9 60 6.4 12.9 0.00 0.00 0.00 78 1010.2
20260505234019 9 61 6.4 11.3 0.00 0.00 0.00 78 1009.9
20260505233719 9 59 6.4 11.3 0.00 0.00 0.00 78 1010.3
20260505233219 9 58 6.4 12.9 0.00 0.00 0.00 78 1010.3
20260505233018 9 54 6.4 9.7 0.00 0.00 0.00 78 1010.1
20260505232718 9 55 9.7 12.9 0.00 0.00 0.00 78 1010.3
20260505232219 9 57 9.7 12.9 0.00 0.00 0.00 78 1010.3
20260505231718 9 61 8.0 14.5 0.00 0.00 0.00 78 1010.3
20260505231218 9 57 9.7 14.5 0.00 0.00 0.00 78 1010.3
20260505231018 9 59 8.0 12.9 0.00 0.00 0.00 78 1010.1
20260505230718 9 57 8.0 19.3 0.00 0.00 0.00 78 1010.3
20260505230018 9 54 8.0 12.9 0.00 0.00 0.00 78 1010.1
20260505225719 10 56 9.7 12.9 0.00 0.00 0.00 78 1010.4
20260505225219 10 57 9.7 14.5 0.00 0.00 0.00 77 1010.4
20260505225019 10 53 9.7 14.5 0.00 0.00 0.00 77 1010.1
20260505224719 10 51 8.0 16.1 0.00 0.00 0.00 77 1010.4
20260505224218 10 54 8.0 16.1 0.00 0.00 0.00 77 1010.5
20260505224018 10 56 8.0 11.3 0.00 0.00 0.00 77 1010.1
20260505223718 10 59 11.3 19.3 0.00 0.00 0.00 77 1010.5
20260505223218 10 56 11.3 16.1 0.00 0.00 0.00 77 1010.5
20260505223019 10 57 12.9 17.7 0.00 0.00 0.00 77 1010.2
20260505222718 10 64 8.0 14.5 0.00 0.00 0.00 77 1010.5
20260505222218 10 53 9.7 14.5 0.00 0.00 0.00 77 1010.5
20260505222019 10 60 9.7 14.5 0.00 0.00 0.00 77 1010.2
20260505221718 10 58 9.7 12.9 0.00 0.00 0.00 78 1010.5
20260505221218 10 56 11.3 16.1 0.00 0.00 0.00 78 1010.5
20260505221019 10 57 11.3 16.1 0.00 0.00 0.00 78 1010.3
20260505220718 10 43 8.0 14.5 0.00 0.00 0.00 78 1010.6
20260505220219 10 55 11.3 14.5 0.00 0.00 0.00 78 1010.5
20260505220019 10 51 11.3 16.1 0.00 0.00 0.00 78 1010.2
20260505215718 10 56 12.9 19.3 0.00 0.00 0.00 79 1010.5
20260505215219 10 56 11.3 16.1 0.00 0.00 0.00 79 1010.5
20260505215018 10 60 9.7 16.1 0.00 0.00 0.00 79 1010.2
20260505214718 10 60 11.3 14.5 0.00 0.00 0.00 79 1010.5
20260505214218 10 57 11.3 19.3 0.00 0.00 0.00 79 1010.6
20260505214019 10 56 9.7 12.9 0.00 0.00 0.00 79 1010.2
20260505213718 10 57 9.7 14.5 0.00 0.00 0.00 79 1010.6
20260505213219 10 54 8.0 14.5 0.00 0.00 0.00 79 1010.6
20260505213018 10 56 8.0 12.9 0.00 0.00 0.00 79 1010.3
20260505212718 10 52 9.7 12.9 0.00 0.00 0.00 79 1010.6
20260505212218 10 53 11.3 19.3 0.00 0.00 0.00 79 1010.6
20260505212018 10 57 11.3 17.7 0.00 0.00 0.00 79 1010.3
20260505211718 10 64 9.7 14.5 0.00 0.00 0.00 79 1010.6
20260505211218 10 52 9.7 16.1 0.00 0.00 0.00 79 1010.6
20260505210718 10 58 9.7 16.1 0.00 0.00 0.00 79 1010.6
20260505210218 11 47 9.7 19.3 0.00 0.00 0.00 78 1010.6
20260505210018 11 56 11.3 19.3 0.00 0.00 0.00 78 1010.2
20260505205718 11 58 9.7 19.3 0.00 0.00 0.00 78 1010.6
20260505205218 11 48 9.7 16.1 0.00 0.00 0.00 78 1010.7
20260505205019 11 51 9.7 12.9 0.00 0.00 0.00 78 1010.4
20260505204718 11 54 9.7 14.5 0.00 0.00 0.00 79 1010.7
20260505204218 11 48 9.7 16.1 0.00 0.00 0.00 79 1010.7
20260505204019 11 53 11.3 16.1 0.00 0.00 0.00 79 1010.4
20260505203718 11 47 11.3 16.1 0.00 0.00 0.00 78 1010.6
20260505203218 11 52 9.7 16.1 0.00 0.00 0.00 78 1010.6
20260505203018 11 52 9.7 16.1 0.00 0.00 0.00 78 1010.3
20260505202717 11 48 11.3 16.1 0.00 0.00 0.00 78 1010.6
20260505201718 11 55 9.7 16.1 0.00 0.00 0.00 78 1010.6
20260505201218 11 52 9.7 14.5 0.00 0.00 0.00 78 1010.5
20260505201018 11 53 8.0 14.5 0.00 0.00 0.00 78 1010.2
20260505200718 11 51 9.7 19.3 0.00 0.00 0.00 78 1010.5
20260505200218 11 41 8.0 16.1 0.00 0.00 0.00 78 1010.5
20260505200018 11 43 9.7 12.9 0.00 0.00 0.00 78 1010.2
20260505195719 11 46 9.7 16.1 0.00 0.00 0.00 77 1010.5
20260505195218 11 57 8.0 12.9 0.00 0.00 0.00 77 1010.4
20260505195018 11 39 8.0 12.9 0.00 0.00 0.00 77 1010.1
20260505194718 11 43 9.7 19.3 0.00 0.00 0.00 77 1010.4
20260505194218 11 55 9.7 16.1 0.00 0.00 0.00 77 1010.4
20260505194018 11 57 9.7 14.5 0.00 0.00 0.00 77 1010.1
20260505193718 11 46 9.7 16.1 0.00 0.00 0.00 77 1010.4
20260505191721 11 38 8.0 14.5 0.00 0.00 0.00 76 1010.3
20260505191220 11 40 9.7 14.5 0.00 0.00 0.00 76 1010.2
20260505190721 11 50 9.7 16.1 0.00 0.00 0.00 76 1010.2
20260505190220 11 53 9.7 14.5 0.00 0.00 0.00 76 1010.2
20260505185721 11 32 8.0 16.1 0.00 0.00 0.00 75 1010.2